Regional Weather Roundup
Issued by NWS Charleston, SC

Current Version | Previous Version | Graphics & Text | Print | Product List | Glossary On
Versions: 1 2 3 4 5 6 7 8 9 10 11 12 13 14 15 16 17 18 19 20 21 22 23 24 25 26 27 28 29 30 31 32 33 34 35 36 37 38 39 40 41 42 43 44 45 46 47 48 49 50
000
ASUS42 KCHS 010212
RWRCHS

REGIONAL WEATHER ROUNDUP
NATIONAL WEATHER SERVICE CHARLESTON SC
1000 PM EDT MON AUG 31 2015

NOTE: "FAIR" INDICATES FEW OR NO CLOUDS BELOW 12,000 FEET WITH NO
SIGNIFICANT WEATHER AND/OR OBSTRUCTIONS TO VISIBILITY.

NOT ALL STATIONS ARE QUALITY CONTROLLED BY THE NATIONAL
WEATHER SERVICE. USE DATA WITH CAUTION...ESPECIALLY
DEWPOINT OBSERVATIONS.

SCZ027-030-031-034>040-042>050-010300-
...SOUTHEAST SOUTH CAROLINA...

CITY           SKY/WX    TMP DP  RH WIND       PRES   REMARKS
N CHARLESTON   PTCLDY    77  73  87 CALM      30.09R
WATERFRONT PRK   N/A     82  76  82 VRB2      30.05R
MOUNT PLEASANT LGT RAIN  77  75  94 CALM      30.08R
JOHNS ISLAND   FAIR      77  75  94 CALM      30.09R
PINOPOLIS        N/A     82  75  78 CALM      29.99R
MONCKS CORNER  FAIR      75  72  88 CALM      30.08R
SUMMERVILLE    FAIR      73  73 100 CALM      30.09R
BEAUFORT MCAS  PTCLDY    76  73  91 CALM      30.09R
BEAUFORT ARPT  FAIR      75  73  94 CALM      30.09R
HILTON HEAD IS PTCLDY    79  75  89 CALM      30.10R
WALTERBORO     CLEAR     75  72  88 CALM      30.10R
ALLENDALE      FAIR      73  72  94 CALM      30.09R

...SOUTHERN MIDLANDS AND PEE DEE...

CITY           SKY/WX    TMP DP  RH WIND       PRES   REMARKS
GEORGETOWN     NOT AVBL
KINGSTREE      NOT AVBL
ORANGEBURG     PTCLDY    77  71  82 S5        30.09R
BARNWELL       FAIR      75  73  94 CALM      30.10R
AIKEN          FAIR      72  68  88 CALM      30.13R
MANNING        MOCLDY    72  72 100 CALM      30.09R
COLUMBIA       PTCLDY    78  70  76 CALM      30.07R
SUMTER         CLEAR     74  70  86 E2        30.07R
FLORENCE       CLEAR     73  70  90 CALM      30.07R
MYRTLE BEACH   PTCLDY    77  72  83 CALM      30.09R
N MYRTLE BEACH CLOUDY    76  75  97 CALM      30.07R

$$

GAZ063-065-086>088-099>101-113>116-118-119-134>141-150-010300-
...SOUTHEAST GEORGIA...

CITY           SKY/WX    TMP DP  RH WIND       PRES   REMARKS
SAVANNAH ARPT  PTCLDY    77  73  87 E3        30.09R
HUNTER AAF     PTCLDY    76  76 100 CALM      30.07R
FORT STEWART   CLEAR     76  73  91 CALM      30.07R
STATESBORO     CLEAR     72  32  23 CALM      30.09R
SYLVANIA       CLEAR     74  74 100 CALM      30.10R
CLAXTON        NOT AVBL

...CSRA...CENTRAL AND FAR SOUTHEAST GEORGIA...

CITY           SKY/WX    TMP DP  RH WIND       PRES   REMARKS
THOMSON        CLEAR     73  73 100 CALM      30.14R
AUGUSTA-BUSH   CLEAR     71  70  96 CALM      30.08R
AUGUSTA-DANIEL CLEAR     83  68  60 CALM      30.10R
SWAINSBORO     FAIR     N/A N/A N/A CALM      30.11R
VIDALIA        CLEAR     73  72  94 CALM      30.10R
EASTMAN        FAIR      74  74 100 CALM      30.12R
HAZLEHURST     FAIR      78  73  84 CALM      30.08R
ALMA           CLEAR     75  72  90 CALM      30.08R
WAYCROSS       MOCLDY    81  78  89 E3        30.08R
JESUP          CLOUDY    81  77  89 CALM      30.09R
BAXLEY         FAIR      77  73  88 CALM      30.08R
BRUNSWICK      MOCLDY    77  75  94 CALM      30.09R
SAINT SIMONS   CLOUDY    81  75  82 CALM      30.08R

$$

SCZ027-028-034-036>038-045-046-048>050-GAZ119-141-010300-
...LAKE AND SUPPLEMENTAL COASTAL OBSERVATIONS...

STATION/POSITION TIME  TEMP    WIND        PRES    WAVE   SWELL
                       AIR SEA DIR/SP/G            HT/PER HT/PER/DIR
                 (UTC) (F)     (DEG/KT/KT) (MB)    (FT/S) (FT/S/D)
UPR LAKE MARION  NOT AVBL
WINYAH BAY       NOT AVBL
LAKE MURRAY      0100   80     290/  1/  3 1017.3R
ACE BASIN NERRS  NOT AVBL
FORT PULASKI     0100   80 83   CALM  /  1 1018.5R
SAPELO ISLAND    0100   79     130/  2     1018.0R

$$

ANZ835-935-AMZ111-154-330-350-352-354-370-450-454-472-010300-
...C-MAN AND BUOY OBSERVATIONS...

STATION/POSITION TIME  TEMP    WIND        PRES    WAVE   SWELL
                       AIR SEA DIR/SP/G            HT/PER HT/PER/DIR
                 (UTC) (F)     (DEG/KT/KT) (MB)    (FT/S) (FT/S/D)
BUOY 41004       0150   82 83  250/  8/ 10 1018.1R   4/ 8   3/ 8
BUOY 41008       0150   82 84  140/  4/  4 1018.7R   3/ 9   3/100/ 9
FOLLY BEACH CMAN 0100   81     320/  4/  5 1017.8R
CAPERS NEARSHORE 0108   82     220/  6/ 10 1017.7R
FRIPP NEARSHORE  0100   82     320/  6/  8 1017.5R


STATION/POSITION TIME  TEMP    WIND        PRES    WAVE   SWELL
                       AIR SEA DIR/SP/G            HT/PER HT/PER/DIR
                 (UTC) (F)     (DEG/KT/KT) (MB)    (FT/S) (FT/S/D)
5E ST. MARYS GA  0121      86                N/A     3/ 9
FRYING PAN BUOY  0150   82 81  230/ 14/ 17 1017.4R   4/ 7   2/100/ 9
BUOY 41025       0150   81 84  170/ 16/ 17 1018.2R   4/ 8   2/130/ 8
CAPE LOOKOUT NC  0100   78     160/ 16/ 17 1017.3S
BUOY 41002       0150   84 84  210/ 12/ 14 1019.7R   4/ 7   3/190/ 7
BUOY 41010       0120   85 86  160/  8/  8 1018.6R
ST AUGUSTINE FL  0200   83 85  160/ 13/ 13 1018.9R


$$



USA.gov is the U.S. government's official web portal to all federal, state and local government web resources and services.